Location: Shell Point
(30.0571°N, 84.2896°W)
Time: 22:22:03
(UTC-04:00)

Meteor 2-19 Rocket - Visible Passes

Search period start: 20 August 2014 00:00
Search period end: 30 August 2014 00:00
Orbit: 937 x 958 km, 82.5° (Epoch: 20 August)

Date Brightness Start Highest point End Pass type
(mag) Time Alt. Az. Time Alt. Az. Time Alt. Az.
20 Aug 6.7 00:09:54 10° NW 00:12:45 16° WNW 00:12:45 16° WNW visible
20 Aug 4.4 22:40:16 10° N 22:45:52 75° NNE 22:45:52 75° NNE visible
21 Aug 6.0 21:14:47 10° NE 21:18:15 15° ENE 21:19:00 15° E visible
21 Aug 4.9 22:57:23 10° NNW 23:03:05 57° W 23:03:05 57° W visible
22 Aug 5.4 21:30:30 10° NNE 21:35:32 26° ENE 21:36:16 25° E visible
22 Aug 5.7 23:14:50 10° NNW 23:20:17 34° W 23:20:21 34° W visible
23 Aug 4.8 21:46:53 10° N 21:52:42 43° E 21:53:33 41° ESE visible
23 Aug 6.4 23:32:45 10° NW 23:37:06 21° W 23:37:39 20° W visible
24 Aug 4.3 22:03:38 10° N 22:09:47 72° E 22:10:54 59° SE visible
24 Aug 7.0 23:52:00 10° WNW 23:53:48 11° W 23:55:00 11° W visible
25 Aug 6.2 20:38:58 10° NE 20:41:29 13° ENE 20:44:00 10° E visible
25 Aug 4.6 22:20:40 10° NNW 22:26:47 69° W 22:28:17 51° SSW visible
26 Aug 5.6 20:54:11 10° NNE 20:58:48 22° ENE 21:01:38 16° ESE visible
26 Aug 5.5 22:37:59 10° NNW 22:43:41 41° W 22:45:45 32° SW visible
27 Aug 5.0 21:10:24 10° NNE 21:16:00 36° E 21:19:09 22° SE visible
27 Aug 6.3 22:55:43 10° NW 23:00:31 25° W 23:03:16 18° WSW visible
28 Aug 4.4 21:27:02 10° N 21:33:07 60° E 21:36:45 25° SSE visible
28 Aug 7.0 23:14:14 10° NW 23:17:16 14° W 23:20:18 10° WSW visible
29 Aug 4.5 21:43:58 10° N 21:50:09 82° W 21:54:26 21° S visible
